{"data":{"norad_id":53673,"intl_designator":"2022-105AB","name":"STARLINK-4456","alt_names":[],"object_type":"PAYLOAD","status":"ACTIVE","operator":null,"country":"US","launch_date":"2022-08-31","launch_site_code":"AFWTR","launch_vehicle":null,"mission":null,"orbit_class":"UNKNOWN","rcs_meters":null,"size_class":null,"mass_kg":null,"dimensions":null,"purposes":["comms"],"wikipedia_slug":null,"has_3d_model":false,"image_url":null,"decayed_at":null,"tle_current":{"epoch":"2026-09-13T05:49:38.241408Z","epoch_age_seconds":708333,"freshness":"AGED","line1":"1 53673U 22105AB  26256.24280372  .10066930  26922-5  18079-3 0  9992","line2":"2 53673  97.5710 147.1198 0008836 271.3952  88.6338 16.47258150222225","mean_motion":16.4725815,"eccentricity":0.0008836,"inclination_deg":97.571,"raan_deg":147.1198,"arg_perigee_deg":271.3952,"mean_anomaly_deg":88.6338,"bstar":0.00018079,"rev_number":22222,"period_min":87.417992134384,"perigee_km":140.80052752839,"apogee_km":152.33098223682,"semimajor_km":6524.7027548826,"source":"CELESTRAK","updated_at":"2026-09-13T09:00:28.492361Z"}}}